Weather in Komsomolets

Russia / Stavropol Krai     44°01′01″N   43°33′52″E
temp.,
°C
wind,
m/s
gust,
m/s
humid.,
%
clouds,
%
prec.,
mm/h
press.,
hPa
HPBL,
m
13 may, thu
thu1300:00+11s227920 0.0 101432
03:00+9s22860 0.0 101316
06:00+12sw11770 0.0 101434
09:00+18e33630 0.0 1014533
12:00+22e33530 0.0 1014982
15:00+23ese44505 0.0 10131133
18:00+21ese35650 0.0 1013153
21:00+16sse22740 0.0 101517
14 may, fri
fri1400:00+15sse11830 0.0 101311
03:00+14s22869 0.0 101313
06:00+15se11813 0.0 101441
09:00+21se22640 0.0 1013395
12:00+26ese33500 0.0 1012860
15:00+27ese44470 0.0 10111088
18:00+25ese24640 0.0 101180
21:00+19ssw22715 0.0 101211
15 may, sat
sat1500:00+17sse11805 0.0 101111
03:00+16nw118513 0.0 101111
06:00+18w22765 0.0 101249
09:00+24nnw345311 0.0 1012463
12:00+27nnw44535 0.0 10121251
15:00+28n335240 0.0 10111590
18:00+24ne3572100 0.2 1011109
21:00+20wsw2280100 2.9 101212
16 may, sun
sun1600:00+18s1185100 0.1 101111
03:00+17nnw008774 0.1 101011
06:00+17ne11826 0.0 101049
09:00+21e336672 0.0 1009403
12:00+26e45565 0.0 10081076
15:00+27e45475 0.0 10061421
18:00+25se225995 0.0 100532
21:00+19ese3761100 0.4 1005154
17 may, mon
mon1700:00+16e225748 0.0 100525
03:00+14n115870 0.0 100511
06:00+15nne116254 0.0 100543
09:00+21nne2154100 0.0 1005353
12:00+25ne32505 0.1 1005812
15:00+27nnw324417 0.1 10051441
18:00+20wnw8147397 0.2 1007455
21:00+18nw51092100 4.0 1011424